Regional Weather Roundup
Issued by NWS

Home | Current Version | Previous Version | Text Only | Print | Product List | Glossary On
Versions: 1 2 3 4 5 6 7 8 9 10 11 12 13 14 15 16 17 18 19 20 21 22 23 24 25 26 27 28 29 30 31 32 33 34 35 36 37 38 39 40 41 42 43 44 45 46 47 48 49 50
000
ASUS43 KTOP 232159
RWRKS

WEATHER ROUNDUP FOR KANSAS
NATIONAL WEATHER SERVICE GOODLAND KS
400 PM CST FRI FEB 23 2018

NOTE:  "FAIR" INDICATES FEW OR NO CLOUDS BELOW 12,000 FEET WITH NO
SIGNIFICANT WEATHER AND/OR OBSTRUCTIONS TO VISIBILITY.

KSZ001>006-013>018-027>032-041>047-232300-
NORTHWEST KANSAS

CITY           SKY/WX    TMP DP  RH WIND       PRES   REMARKS
GOODLAND       SUNNY     38  22  52 SE16G22   30.03F WCI  29
HAYS           CLOUDY    36  26  67 NE8       30.16F
HILL CITY      SUNNY     35  24  64 E7        30.17S
RUSSELL        MOSUNNY   41  28  60 E10       30.16F
$$

KSZ061>065-074>080-084>089-232300-
SOUTHWEST KANSAS

CITY           SKY/WX    TMP DP  RH WIND       PRES   REMARKS
DODGE CITY     CLOUDY    30  26  85 E12       30.11F WCI  20
GARDEN CITY    CLOUDY    28  25  88 E14       30.08F WCI  17
GREAT BEND     CLOUDY    35  27  72 NE10      30.16F WCI  27
LIBERAL        MIX PCPN  30  30 100 E12       30.06F VSB 1/4 WCI  20
$$

KSZ066>073-081>083-090>101-232300-
SOUTHEAST KANSAS

CITY           SKY/WX    TMP DP  RH WIND       PRES   REMARKS
CHANUTE        CLOUDY    38  35  89 N9        30.19F
COFFEYVILLE    RAIN      41  39  93 NE10      30.19S FOG
HUTCHINSON     CLOUDY    32  29  88 E6        30.19F
MEDICINE LODGE   N/A     33  32  96 NE8       30.16F
NEWTON         CLOUDY    31  29  92 E7        30.21F
PARSONS        RAIN      40  37  89 NE6       30.21S
WICHITA INTL   CLOUDY    34  32  92 NE9       30.19F
WICHITA JABRA  CLOUDY    33  32  96 NE8       30.19F
WICHITA MCCONL CLOUDY    33  32  94 NE9       30.18F
WINFIELD       MIX PCPN  37  36  96 N7        30.19F
$$

KSZ007>012-019>026-033>040-048>060-102>105-232300-
NORTHEAST KANSAS

CITY           SKY/WX    TMP DP  RH WIND       PRES   REMARKS
CONCORDIA      MOSUNNY   37  27  67 E7        30.21F
EMPORIA        CLOUDY    32  29  88 NE6       30.22F
LAWRENCE       CLOUDY    35  30  82 NE3       30.27R
MANHATTAN      CLOUDY    36  28  73 E6        30.24F
OLATHE IND     CLOUDY    34  31  88 N6        30.25S
OLATHE EXE     CLOUDY    34  30  85 N6        30.24S
SALINA         CLOUDY    38  29  70 VRB7      30.21F
TOPEKA BILLARD CLOUDY    35  30  82 NE5       30.26S
TOPEKA FORBES  CLOUDY    35  30  82 NE5       30.24S
$$




USA.gov is the U.S. government's official web portal to all federal, state and local government web resources and services.